"Pseudo-MPEC" for C0R29N2

Created 2019 Jun 19 17:07:18 UT using Find_Orb

Click here for an explanation of pseudo-MPECs

 
 Astrometry: 
     C0R29N2  C2019 06 06.43532 22 15 25.39 -07 21 39.4    ~66Bq 20.9 GVNEOCPG96
     C0R29N2  C2019 06 06.44112 22 15 26.91 -07 22 12.1    ~66Bq 21.6 GVNEOCPG96
     C0R29N2  C2019 06 06.44692 22 15 28.46 -07 22 43.3    ~66Bq 20.8 GVNEOCPG96
     C0R29N2  C2019 06 06.45272 22 15 29.98 -07 23 15.7    ~66Bq 21.1 GVNEOCPG96
     C0R29N2  C2019 06 06.46834 22 15 34.08 -07 24 40.3    ~66Jb 21.0 GVNEOCPG96
     C0R29N2  C2019 06 06.46909 22 15 34.26 -07 24 44.5    ~66Jb 21.5 GVNEOCPG96
     C0R29N2  C2019 06 06.47060 22 15 34.70 -07 24 56.8    ~66Jb       VNEOCPG96
     C0R29N2 KC2019 06 07u/kqJ);y:OHMiDYAstrometry0`g-.redacted;Gm8click2Fd`OJ04
     C0R29N2 KC2019 06 07@[8ehere,cH!forbPeitg3SwMA+6BxN.y8/9A)NZexplanationnJ04
     C0R29N2  C2019 06 07.37771 22 19 49.14 -08 46 04.4    ~679b       VNEOCPI52
     C0R29N2  C2019 06 07.38104 22 19 50.01 -08 46 23.1    ~679b 20.7 GVNEOCPI52
     C0R29N2  C2019 06 07.38437 22 19 50.82 -08 46 40.8    ~679b 20.2 GVNEOCPI52
     C0R29N2  C2019 06 07.38770 22 19 51.80 -08 46 58.3    ~679b       VNEOCPI52
     C0R29N2  C2019 06 08.41436 22 24 25.83 -10 15 29.6    ~691b 22.1 GVNEOCPI52
     C0R29N2  C2019 06 08.41686 22 24 26.47 -10 15 42.7    ~691b 21.4 GVNEOCPI52
     C0R29N2  C2019 06 08.41936 22 24 27.08 -10 15 55.5    ~691b 21.2 GVNEOCPI52
     C0R29N2  C2019 06 08.42185 22 24 27.67 -10 16 08.2    ~691b 21.7 GVNEOCPI52
     C0R29N2  C2019 06 09.41432 22 28 41.82 -11 38 15.9    ~69Ab       VNEOCPI52
     C0R29N2  C2019 06 09.41765 22 28 42.64 -11 38 32.2    ~69Ab 21.3 GVNEOCPI52
     C0R29N2  C2019 06 09.42098 22 28 43.39 -11 38 50.2    ~69Ab       VNEOCPI52
     C0R29N2  C2019 06 09.42431 22 28 44.13 -11 39 05.8    ~69Ab 21.1 GVNEOCPI52
     C0R29N2  C2019 06 11.42586 22 36 43.91 -14 14 53.6    ~6BB7       VNEOCPI52
     C0R29N2  C2019 06 11.43141 22 36 45.09 -14 15 16.7    ~6BB7       VNEOCPI52
     C0R29N2  C2019 06 11.43697 22 36 46.32 -14 15 43.9    ~6BB7       VNEOCPI52
     C0R29N2  C2019 06 15.42277 22 50 42.10 -18 49 53.6    ~6FB7 20.7 GVNEOCPG96
     C0R29N2  C2019 06 15.42607 22 50 42.64 -18 50 05.0    ~6FB7 20.9 GVNEOCPG96
     C0R29N2  C2019 06 15.42937 22 50 43.25 -18 50 18.0    ~6FB7 21.2 GVNEOCPG96
     C0R29N2  C2019 06 15.43267 22 50 43.83 -18 50 30.8    ~6FB7 21.4 GVNEOCPG96

Station data:
(G96) Mt. Lemmon Survey  (N32.442754 W110.788720)  US/Arizona.  Observers T.
   A. Pruyne, B. M. Africano, E. J. Christensen, G. A. Farneth, D. C. Fuls,
   A. R. Gibbs, A. D. Grauer, H. Groeller, J. A. Johnson, R. A. Kowalski, S.
   M. Larson, G. J. Leonard, R. L. Seaman, F. C. Shelly. 1.5-m reflector +
   10K CCD.
(I52) Steward Observatory, Mt. Lemmon Station  (N32.442547 W110.788920)
   US/Arizona.  Observers T. A. Pruyne, B. M. Africano, E. J. Christensen, G.
   A. Farneth, D. C. Fuls, A. R. Gibbs, A. D. Grauer, H. Groeller, J. A.
   Johnson, R. A. Kowalski, S. M. Larson, G. J. Leonard, R. L. Seaman, F. C.
   Shelly. 1.0-m reflector + CCD.
(J04) ESA Optical Ground Station, Tenerife  (N28.300924 W16.511830)  Canary
   Islands (Spain).  Observer D. Abreu. Measurers M. Micheli, D. Koschny, E.
   Schwab, M. Busch, A. Knöfel. 1.0-m f/4.4 reflector + CCD.

Orbital elements:  C0R29N2
   Perihelion 2019 May 22.890052 +/- 0.0143 TT = 21:21:40 (JD 2458626.390052)
Epoch 2019 Jun 15.0 TT = JDT 2458649.5   Earth MOID: 0.0355   AutoNEOCP
M   7.82320613 +/- 0.11             (J2000 ecliptic)
n   0.33852114 +/- 0.0047           Peri.  161.53629 +/- 0.0047
a   2.03897632 +/- 0.0189           Node    84.31628 +/- 0.052
e   0.4915137 +/- 0.00459           Incl.   11.79590 +/- 0.07
P   2.91                   H 23.2   G  0.15   U  9.1  
q 1.03679135 +/- 0.000231    Q 3.04116129 +/- 0.037
From 28 observations 2019 June 6-15; mean residual 0".68
Residuals in arcseconds: 
190606 G96  .36+  .31+    190607 I52  .55-  .14+    190609 I52  .41-  .57-    
190606 G96  .13+  .50-    190607 I52  1.3-  .15+    190611 I52  .19-  .81-    
190606 G96  .39+  .18+    190607 I52  .41+  .36+    190611 I52  .13-  1.2+    
190606 G96  .25+  .36-    190608 I52  .38-  .23+    190611 I52  .67+  .85-    
190606 G96  .16+  .78+    190608 I52  .05+  .11-    190615 G96  .12+  .73-    
190606 G96  .09-  .69+    190608 I52  .04+  .15-    190615 G96  .39-  .59+    
190606 G96  .56+  3.3-    190608 I52  .21-  .14-    190615 G96  .10+  .30+    
190607 J04  .25+  .48+    190609 I52  .12-  .30+    190615 G96  .17+  .20+    
190607 J04  .14-  .58+    190609 I52  .50+  .35+    
190607 I52  .62-  1.1+    190609 I52  .11+  1.3-    

Ephemerides (geocentric):
Date (UTC) HH   RA              Dec         delta   r     elong  mag " sig PA
---- -- -- --  -------------   -----------  ------ ------ -----  --- ---- ---
2019 06 19 17  23 02 58.022   -22 58 27.44  .17626 1.0871 109.3 21.8 1.16  53
2019 06 19 18  23 03 04.436   -23 00 40.86  .17641 1.0872 109.3 21.8 1.17  53
2019 06 19 19  23 03 10.836   -23 02 54.06  .17656 1.0874 109.3 21.8 1.18  53
2019 06 19 20  23 03 17.222   -23 05 07.06  .17671 1.0875 109.3 21.8 1.19  53
2019 06 19 21  23 03 23.594   -23 07 19.84  .17686 1.0876 109.4 21.8 1.20  53
2019 06 19 22  23 03 29.951   -23 09 32.42  .17701 1.0878 109.4 21.8 1.21  54
2019 06 19 23  23 03 36.295   -23 11 44.78  .17716 1.0879 109.4 21.8 1.22  54
2019 06 20 00  23 03 42.624   -23 13 56.94  .17731 1.0881 109.4 21.8 1.24  54
2019 06 20 01  23 03 48.940   -23 16 08.88  .17746 1.0882 109.5 21.8 1.25  54
2019 06 20 02  23 03 55.241   -23 18 20.62  .17761 1.0884 109.5 21.8 1.26  55
2019 06 20 03  23 04 01.528   -23 20 32.15  .17776 1.0885 109.5 21.8 1.27  55
2019 06 20 04  23 04 07.801   -23 22 43.48  .17791 1.0887 109.6 21.8 1.28  55
2019 06 20 05  23 04 14.060   -23 24 54.59  .17806 1.0888 109.6 21.8 1.29  55
2019 06 20 06  23 04 20.305   -23 27 05.50  .17821 1.0890 109.6 21.8 1.30  55
2019 06 20 07  23 04 26.537   -23 29 16.21  .17836 1.0891 109.6 21.8 1.31  56
2019 06 20 08  23 04 32.754   -23 31 26.71  .17851 1.0893 109.7 21.8 1.32  56
2019 06 20 09  23 04 38.957   -23 33 37.00  .17866 1.0894 109.7 21.8 1.33  56
2019 06 20 10  23 04 45.146   -23 35 47.09  .17882 1.0895 109.7 21.8 1.34  56
2019 06 20 11  23 04 51.321   -23 37 56.98  .17897 1.0897 109.7 21.8 1.36  56
2019 06 20 12  23 04 57.482   -23 40 06.66  .17912 1.0898 109.8 21.8 1.37  57
2019 06 20 13  23 05 03.629   -23 42 16.14  .17927 1.0900 109.8 21.8 1.38  57
2019 06 20 14  23 05 09.763   -23 44 25.42  .17942 1.0901 109.8 21.8 1.39  57
2019 06 20 15  23 05 15.882   -23 46 34.50  .17957 1.0903 109.8 21.8 1.40  57
2019 06 20 16  23 05 21.988   -23 48 43.38  .17972 1.0904 109.9 21.8 1.41  57
2019 06 20 17  23 05 28.079   -23 50 52.05  .17987 1.0906 109.9 21.8 1.42  58
2019 06 20 18  23 05 34.157   -23 53 00.53  .18002 1.0907 109.9 21.8 1.43  58
2019 06 20 19  23 05 40.221   -23 55 08.80  .18018 1.0909 110.0 21.8 1.44  58
2019 06 20 20  23 05 46.271   -23 57 16.88  .18033 1.0910 110.0 21.8 1.46  58
2019 06 20 21  23 05 52.307   -23 59 24.75  .18048 1.0912 110.0 21.8 1.47  58
2019 06 20 22  23 05 58.330   -24 01 32.43  .18063 1.0913 110.0 21.8 1.48  58
2019 06 20 23  23 06 04.338   -24 03 39.91  .18078 1.0915 110.1 21.8 1.49  59
2019 06 21 00  23 06 10.333   -24 05 47.20  .18093 1.0916 110.1 21.8 1.50  59
2019 06 21 01  23 06 16.314   -24 07 54.28  .18108 1.0918 110.1 21.8 1.51  59
2019 06 21 02  23 06 22.281   -24 10 01.17  .18124 1.0919 110.1 21.8 1.52  59
2019 06 21 03  23 06 28.234   -24 12 07.87  .18139 1.0921 110.2 21.8 1.53  59
2019 06 21 04  23 06 34.174   -24 14 14.37  .18154 1.0922 110.2 21.8 1.55  60
2019 06 21 05  23 06 40.100   -24 16 20.67  .18169 1.0924 110.2 21.8 1.56  60
2019 06 21 06  23 06 46.012   -24 18 26.78  .18184 1.0925 110.2 21.8 1.57  60
2019 06 21 07  23 06 51.910   -24 20 32.70  .18200 1.0927 110.3 21.8 1.58  60
2019 06 21 08  23 06 57.795   -24 22 38.42  .18215 1.0928 110.3 21.8 1.59  60
2019 06 21 09  23 07 03.666   -24 24 43.95  .18230 1.0930 110.3 21.9 1.60  60
2019 06 21 10  23 07 09.523   -24 26 49.29  .18245 1.0931 110.4 21.9 1.61  61
2019 06 21 11  23 07 15.366   -24 28 54.43  .18260 1.0933 110.4 21.9 1.63  61
2019 06 21 12  23 07 21.196   -24 30 59.38  .18276 1.0935 110.4 21.9 1.64  61
2019 06 21 13  23 07 27.012   -24 33 04.15  .18291 1.0936 110.4 21.9 1.65  61
2019 06 21 14  23 07 32.815   -24 35 08.72  .18306 1.0938 110.5 21.9 1.66  61
2019 06 21 15  23 07 38.604   -24 37 13.10  .18321 1.0939 110.5 21.9 1.67  61
2019 06 21 16  23 07 44.379   -24 39 17.29  .18337 1.0941 110.5 21.9 1.68  61